Weather observations for the past three days for
Norwood, Norwood Memorial Airport
Metric (Imperial)
Date Time (edt) Wind (kph) Vis. (km) Weather Sky Cond. Temperature (ºC) Relative Humidity Wind Chill (°C) Heat Index (°C) Pressure Precipitation (cm)
Air Dwpt 6 hour altimeter (cm) sea level (mb) 1 hr 3 hr 6 hr
Max. Min.
08 07:53 W 11 16.09 A Few Clouds FEW100 10.6 -1.7 10.6 1.1 43% 75.79 1010.5
08 06:53 Calm 16.09 Fair CLR 6.7 1.1 68% 75.79 1010.3
08 05:53 Calm 16.09 Fair CLR 2.8 0.6 86% 75.74 1009.8
08 04:53 Calm 16.09 Fair CLR 1.7 0 89% 75.72 1009.4
08 03:53 Calm 16.09 Fair CLR 2.8 0 82% 75.67 1008.6
08 02:53 Calm 16.09 Fair CLR 5 -2.2 60% 75.59 1007.8
08 01:53 NW 9 16.09 Fair CLR 7.8 -2.8 13.9 7.8 47% 6 75.62 1007.9
08 00:53 NW 11 16.09 Fair CLR 9.4 -2.8 43% 8 75.62 1008.0
07 23:53 W 15 16.09 Fair CLR 10 -2.8 41% 8 75.62 1008.2
07 22:53 W 11 16.09 Fair CLR 10 -2.2 43% 9 75.64 1008.3
07 21:53 W 15 16.09 Fair CLR 11.7 -2.8 37% 75.64 1008.2
07 20:53 W 11 16.09 Fair CLR 12.8 -2.8 34% 75.59 1007.6
07 19:53 W 13 16.09 Fair CLR 13.9 -3.3 18.9 13.9 30% 75.51 1006.7
07 18:53 W 20 G 37 16.09 Fair CLR 15.6 -3.3 27% 75.46 1006.1
07 17:53 NW 20 G 33 16.09 Fair CLR 17.2 -2.8 26% 75.44 1005.6
07 16:53 W 17 G 33 16.09 Fair CLR 17.8 -2.2 26% 75.39 1005.0
07 15:53 N 20 G 31 16.09 Fair CLR 18.3 -2.8 24% 75.41 1005.2
07 14:53 NW 17 G 33 16.09 Fair CLR 18.3 -3.3 23% 75.44 1005.8
07 13:53 NW 24 G 33 16.09 Fair CLR 17.8 -0.6 17.8 10 29% 75.49 1006.4
07 12:53 NW 24 G 37 16.09 A Few Clouds FEW055 17.2 0.6 33% 75.51 1006.6
07 11:53 W 13 G 31 16.09 Mostly Cloudy BKN047 16.7 4.4 44% 75.57 1007.2
07 10:53 W 13 16.09 Partly Cloudy SCT045 15.6 6.1 53% 75.59 1007.7
07 09:53 NW 19 16.09 Fair CLR 13.3 5 57% 75.62 1008.1
07 08:53 Vrbl 11 16.09 Fair CLR 11.7 8.3 80% 75.62 1008.1
07 07:53 Calm 16.09 Overcast OVC100 10 8.3 14.4 8.9 89% 75.64 1008.3 0.51
07 06:53 Calm 16.09 Light Rain SCT080 OVC100 8.9 7.8 93% 75.59 1007.8 0.18
07 05:53 NW 6 14.48 Light Rain OVC090 8.9 7.8 93% 75.62 1008.0 0.1
07 04:53 NW 11 11.27 Light Rain OVC090 9.4 7.8 90% 8 75.57 1007.2 0.18 0.23
07 03:53 NW 7 11.27 Light Rain BKN046 OVC060 11.7 8.9 83% 75.57 1007.2 0.05
07 02:53 NW 11 16.09 Overcast OVC038 13.3 9.4 77% 75.46 1006.1
07 01:53 W 9 16.09 Overcast BKN015 BKN019 OVC031 14.4 12.8 15.6 13.9 90% 75.51 1006.6 0.03
07 00:53 W 13 16.09 Overcast OVC024 15.6 13.3 86% 75.49 1006.5 0.03
06 23:53 W 13 8.05 Fog/Mist OVC012 15.6 13.9 90% 75.51 1006.6
06 22:53 S 15 16.09 Overcast OVC009 15 13.3 90% 75.49 1006.2
06 21:53 S 13 16.09 Overcast OVC008 14.4 13.3 93% 75.49 1006.3
06 20:53 S 13 G 28 16.09 Overcast OVC007 13.9 12.8 93% 75.54 1006.9
06 18:53 S 11 G 28 16.09 Overcast BKN010 OVC014 14.4 13.3 93% 75.51 1006.6 0.03
06 17:53 S 19 G 30 6.44 Light Rain Fog/Mist BKN015 BKN020 OVC046 15 13.3 90% 75.54 1006.9 0.08
06 16:53 S 19 G 35 8.05 Light Rain Fog/Mist BKN017 OVC065 15.6 13.9 90% 75.57 1007.3 0.05 0.05
06 15:53 S 22 G 44 12.87 Light Rain OVC090 17.2 13.3 78% 75.57 1007.4
06 14:53 S 33 G 50 16.09 Mostly Cloudy and Breezy BKN110 19.4 11.7 61% 75.59 1007.5
06 13:53 SW 30 G 54 16.09 A Few Clouds FEW080 21.1 11.7 21.7 15.6 55% 75.62 1008.0
06 12:53 S 26 G 50 16.09 Fair CLR 20.6 12.2 59% 75.64 1008.5
06 11:53 S 24 G 41 16.09 Fair CLR 21.1 12.2 57% 75.72 1009.4
06 10:53 S 22 G 48 16.09 Fair CLR 21.1 12.2 57% 75.74 1009.9
06 09:53 S 22 G 39 16.09 Fair CLR 19.4 12.2 63% 75.74 1009.7
06 08:53 S 20 G 33 16.09 Fair CLR 18.3 12.2 68% 75.79 1010.4
06 07:53 S 17 G 33 16.09 Fair CLR 15.6 12.2 16.1 14.4 80% 75.82 1010.9
06 06:53 S 15 16.09 Fair CLR 14.4 11.7 84% 75.82 1010.9
06 05:53 S 15 16.09 Fair CLR 15 11.7 81% 75.82 1010.7
06 04:53 S 17 G 30 16.09 Fair CLR 15 11.7 81% 75.82 1010.7
06 03:53 S 11 G 30 16.09 Fair CLR 15.6 11.1 75% 75.82 1010.7
06 02:53 S 15 G 30 16.09 Fair CLR 15.6 11.1 75% 75.79 1010.5
06 01:53 S 17 G 35 16.09 Fair CLR 15.6 10.6 17.2 15.6 72% 75.79 1010.5
06 00:53 S 17 16.09 Fair CLR 16.1 10 67% 75.84 1010.9
05 23:53 S 17 G 31 16.09 Fair CLR 15.6 8.9 65% 75.82 1010.9
05 22:53 S 17 G 33 16.09 Fair CLR 16.7 8.9 60% 75.82 1010.7
05 21:53 S 20 G 43 16.09 Fair CLR 17.2 8.9 58% 75.79 1010.5
05 20:53 S 17 G 33 16.09 Fair CLR 16.7 8.9 60% 75.77 1010.2
05 19:53 S 15 G 31 16.09 Fair CLR 16.7 9.4 26.1 16.7 62% 75.69 1009.1
05 18:53 S 24 G 46 16.09 Fair CLR 17.8 9.4 58% 75.64 1008.3
05 17:53 S 26 G 46 16.09 Fair CLR 21.1 10 49% 75.59 1007.8
05 16:53 S 24 G 50 16.09 Fair CLR 22.8 10 44% 75.57 1007.5
05 15:53 S 30 G 48 16.09 Fair CLR 23.3 10 43% 75.59 1007.5
05 14:53 S 28 G 44 16.09 Fair CLR 26.1 9.4 35% 26 75.59 1007.6
05 13:53 S 30 G 54 16.09 Fair CLR 25 10 26.1 15 39% 26 75.64 1008.5
05 12:53 S 24 G 39 16.09 Fair CLR 26.1 11.1 39% 26 75.67 1008.8
05 11:53 SW 20 16.09 Fair CLR 23.3 10.6 45% 75.74 1009.8
05 10:53 S 13 G 37 16.09 Fair CLR 21.1 10 49% 75.77 1010.0
05 09:53 S 11 16.09 A Few Clouds FEW110 18.9 10 56% 75.79 1010.3
05 08:53 SW 17 16.09 Mostly Cloudy BKN120 17.2 9.4 60% 75.82 1010.7
Date Time (edt) Wind (kph) Vis. (km) Weather Sky Cond. Air Dwpt Max. Min. Relative Humidity Wind Chill (°C) Heat Index (°C) altimeter (cm) sea level (mb) 1 hr 3 hr 6 hr
6 hour
Temperature (ºC) Pressure Precipitation (cm)